sat.trackr.live / text

‹ back to catalog

STARLINK-30766

NORAD 58125 · 2023-162H

PAYLOAD ACTIVE UNKNOWN

§ Identity

Operator
Country
US
Launch date
2023-10-22
Launch site
AFETR
Launch vehicle
Mass (kg)
RCS (m²)

Purposes: comms

External: N2YO · Heavens-Above · Gunter

§ Orbital elements

Epoch: 2026-09-20T22:17:05.440416Z

Period
94.27 min
Inclination
42.9994°
Eccentricity
0.0001453
Mean motion
15.27577618 rev/d
Perigee alt
482.1 km
Apogee alt
484.1 km
Semi-major
6,861.2 km
B*
1.8042e-5
RAAN
106.7139°
Arg perigee
261.8075°
Mean anomaly
98.2612°
Rev number
16,220

§ Raw data

STARLINK-307661 58125U 23162H   26263.92853519  .00000234  00000+0  18042-4 0  99932 58125  42.9994 106.7139 0001453 261.8075  98.2612 15.27577618162207

JSON: /api/v1/satellites/58125 · /tle

For live sub-satellite position, see the globe view (requires WebGL).

§ Visibility from observer

Set your observer location to see the next 7 days of passes ≥ 10°. The values pass through the URL so the page stays shareable.

No JS? Fill the form by hand. The geolocation button needs JavaScript.